Location: Auttagershofen
(48.1940°N, 10.0237°E)
Time: 21:51:27
(UTC+00:00)

Lacrosse 5 rocket - Pass Details

Date: 19 April 2026
Orbit: 390 x 471 km, 57.0° (Epoch: 19 May)

Event Time Altitude Azimuth Distance (km) Brightness Sun altitude
Rises 20:46:03 0° 303° (WNW) 2,291 5.8 -21.5°
Maximum altitude 20:50:52 18° 10° (N) 1,032 3.2 -22.0°
Enters shadow 20:51:51 16° 34° (NE) 1,115 3.0 -22.1°
